Location: Gwatt
(46.7204°N, 7.6223°E)
Time: 08:41:44
(UTC+00:00)

Vanguard 3 - Pass Details

Date: 21 January 2021
Orbit: 508 x 3261 km, 33.3° (Epoch: 24 February)

Event Time Altitude Azimuth Distance (km) Brightness Sun altitude
Exits shadow 03:35:27 24° 176° (S) 2,596 9.6 -35.6°
Maximum altitude 03:38:09 28° 150° (SSE) 2,689 9.8 -35.2°
Drops below altitude 10° 03:48:10 10° 99° (E) 4,878 11.9 -33.5°
Sets 03:53:40 0° 90° (E) 6,354 12.8 -32.5°
